User: anonymous   Login
Location: Fort Wayne
(41.1310°N, 85.1290°W)
Time: 05:27:49
(UTC-04:00)
Language:

MetOp-A - Orbit

View from above orbital plane
View from above orbital plane
View from above satellite
View from above satellite

Ground track
Ground track

The orbit data is extracted from the following two-line orbital elements,

1 29499U 06044A   14297.45250667  .00000174  00000-0  99705-4 0  4974
2 29499 098.7100 355.4046 0002197 123.4410 002.7024 14.21505540415799
Epoch (UTC): 24 October 2014 10:51:36
Eccentricity: 0.0002197
inclination: 98.7100°
perigee height: 818 km
apogee height: 822 km
right ascension of ascending node: 355.4046°
argument of perigee: 123.4410°
revolutions per day: 14.21505540
mean anomaly at epoch: 2.7024°
orbit number at epoch: 41579

The dashed part of the orbit path shows where the satellite is in the earth's shadow,  

DLR